sat.trackr.live / text

‹ back to catalog

STARLINK-34662

NORAD 64799 · 2025-150K

PAYLOAD ACTIVE UNKNOWN

§ Identity

Operator
Country
US
Launch date
2025-07-16
Launch site
AFWTR
Launch vehicle
Mass (kg)
RCS (m²)

Purposes: comms

External: N2YO · Heavens-Above · Gunter

§ Orbital elements

Epoch: 2026-09-20T13:55:49.882944Z

Period
96.11 min
Inclination
70.0046°
Eccentricity
0.0002882
Mean motion
14.98336982 rev/d
Perigee alt
570.0 km
Apogee alt
574.0 km
Semi-major
6,950.2 km
B*
1.9257e-4
RAAN
2.9042°
Arg perigee
266.1380°
Mean anomaly
93.9450°
Rev number
6,571

§ Raw data

STARLINK-346621 64799U 25150K   26263.58043846  .00002206  00000+0  19257-3 0  99912 64799  70.0046   2.9042 0002882 266.1380  93.9450 14.98336982 65719

JSON: /api/v1/satellites/64799 · /tle

For live sub-satellite position, see the globe view (requires WebGL).

§ Visibility from observer

Set your observer location to see the next 7 days of passes ≥ 10°. The values pass through the URL so the page stays shareable.

No JS? Fill the form by hand. The geolocation button needs JavaScript.